Chattanooga, TN

2:46 PM EST on December 05, 2019 (GMT -0500)
Lovell

Weather History for KCHA - October, 2019

Change the Weather History Date:

Thursday, October 17, 2019

  Actual Average Record
Temperature  
Mean Temperature 55 °F 61 °F  
Max Temperature 66 °F 73 °F 89 °F (1910)
Min Temperature 43 °F 49 °F 32 °F (1943)
Degree Days  
Heating Degree Days 10 5  
Month to date heating degree days 22 58  
Since 1 July heating degree days 22 73  
Cooling Degree Days 0 1  
Month to date cooling degree days 129 38  
Year to date cooling degree days 2409 1727  
Growing Degree Days 5 (Base 50)    
Moisture  
Dew Point 37 °F    
Average Humidity 54    
Maximum Humidity 76    
Minimum Humidity 29    
Precipitation  
Precipitation 0.00 in 0.10 in 2.29 in (1949)
Month to date precipitation 0.45 1.80  
Year to date precipitation 46.62 41.10  
Snow  
Snow 0.00 in 0.00 in - ()
Month to date snowfall 0.0 0.0  
Since 1 July snowfall 0.0 0.0  
Since 1 September snowfall 0.0 0.0  
Snow Depth 0.00 in    
Sea Level Pressure  
Sea Level Pressure 30.01 in    
Wind  
Wind Speed 8 mph ()    
Max Wind Speed 15 mph    
Max Gust Speed 21 mph    
Visibility 10.0 miles    
Events      
T = Trace of Precipitation, MM = Missing Value Source: Averaged Metar Reports

Daily Weather History Graph

Daily Weather History Graph

Search for Another Location

Airport or City:

Astronomy

Oct. 17, 2019 Rise Set
Actual Time 7:48 AM EDT 7:03 PM EDT
Civil Twilight 7:22 AM EDT 7:29 PM EDT
Nautical Twilight 6:53 AM EDT 7:58 PM EDT
Astronomical Twilight 6:23 AM EDT 8:27 PM EDT
Moon 9:42 PM EDT (10/17) 11:12 AM EDT (10/17)
Length of Visible Light 12h 06m
Length of Day
11h 15m
Waning Gibbous, 87% of the Moon is Illuminated
Oct 17
Waning Gibbous
Oct 21
Last Quarter
Oct 27
New
Nov 4
First Quarter
Nov 12
Full

Hourly Weather History & Observations

Time (EDT) Temp. Windchill Dew Point Humidity Pressure Visibility Wind Dir Wind Speed Gust Speed Precip Events Conditions
12:53 AM 53.1 °F - 39.9 °F 61% 30.00 in 10.0 mi NNW 15.0 mph - N/A   Clear
1:53 AM 51.1 °F - 39.9 °F 66% 30.00 in 10.0 mi North 12.7 mph - N/A   Clear
2:53 AM 48.9 °F - 39.9 °F 71% 30.01 in 10.0 mi NNW 9.2 mph - N/A   Clear
3:53 AM 46.9 °F - 39.0 °F 74% 30.01 in 10.0 mi NNW 9.2 mph - N/A   Clear
4:53 AM 46.9 °F - 37.9 °F 71% 30.01 in 10.0 mi NNW 5.8 mph - N/A   Clear
5:53 AM 46.9 °F - 37.0 °F 68% 30.01 in 10.0 mi North 10.4 mph - N/A   Partly Cloudy
6:53 AM 46.0 °F 43.9 °F 37.0 °F 71% 30.02 in 10.0 mi NNW 4.6 mph - N/A   Scattered Clouds
7:53 AM 44.1 °F 40.8 °F 37.0 °F 76% 30.04 in 10.0 mi WNW 5.8 mph - N/A   Partly Cloudy
8:53 AM 48.0 °F - 37.0 °F 66% 30.06 in 10.0 mi NNW 9.2 mph - N/A   Partly Cloudy
9:53 AM 52.0 °F - 36.0 °F 54% 30.05 in 10.0 mi North 12.7 mph - N/A   Partly Cloudy
10:53 AM 55.0 °F - 36.0 °F 49% 30.06 in 10.0 mi NNE 8.1 mph - N/A   Partly Cloudy
11:53 AM 57.0 °F - 35.1 °F 44% 30.05 in 10.0 mi NNE 6.9 mph - N/A   Partly Cloudy
12:53 PM 59.0 °F - 35.1 °F 41% 30.04 in 10.0 mi Calm Calm - N/A   Partly Cloudy
1:53 PM 61.0 °F - 35.1 °F 38% 30.03 in 10.0 mi North 5.8 mph - N/A   Partly Cloudy
2:53 PM 64.0 °F - 34.0 °F 33% 30.00 in 10.0 mi NNW 8.1 mph - N/A   Partly Cloudy
3:53 PM 66.0 °F - 34.0 °F 30% 29.97 in 10.0 mi NE 6.9 mph - N/A   Partly Cloudy
4:53 PM 66.0 °F - 35.1 °F 32% 29.96 in 10.0 mi NNE 6.9 mph - N/A   Partly Cloudy
5:53 PM 66.0 °F - 35.1 °F 32% 29.96 in 10.0 mi North 8.1 mph - N/A   Partly Cloudy
6:53 PM 63.0 °F - 36.0 °F 37% 29.98 in 10.0 mi North 8.1 mph - N/A   Partly Cloudy
7:53 PM 57.0 °F - 39.0 °F 51% 29.99 in 10.0 mi NNW 8.1 mph - N/A   Partly Cloudy
8:53 PM 55.9 °F - 39.0 °F 53% 29.99 in 10.0 mi North 5.8 mph - N/A   Clear
10:53 PM 54.0 °F - 39.0 °F 57% 29.99 in 10.0 mi North 8.1 mph - N/A   Clear
11:53 PM 53.1 °F - 39.9 °F 61% 29.99 in 10.0 mi Calm Calm - N/A   Clear